Miscellaneous Local Product
Issued by NWS Hastings, NE

Home | Current Version | Previous Version | Graphics & Text | Print | Product List | Glossary On
Versions: 1 2 3 4 5 6 7 8 9 10 11 12 13 14 15 16 17 18 19 20 21 22 23 24 25 26 27 28 29 30 31 32 33 34 35 36 37 38 39 40 41 42 43 44 45 46 47 48 49 50
153
AXUS43 KGID 162302
MISGRI

GID CWA HOURLY WEATHER ROUNDUP
NATIONAL WEATHER SERVICE HASTINGS NE
500 PM CST SAT DEC 16 2017

NOTE: "FAIR" INDICATES FEW OR NO CLOUDS BELOW 12,000 FEET WITH NO
SIGNIFICANT WEATHER AND/OR OBSTRUCTIONS TO VISIBILITY.

...SOUTH CENTRAL NEBRASKA...

CITY           SKY/WX    TMP DP  RH WIND       PRES   REMARKS
GRAND ISLAND   CLOUDY    45  32  60 NE14      29.88R
KEARNEY        CLOUDY    45  30  55 NE17      29.86R
HASTINGS       CLEAR     47  30  51 NE16      29.85R
ORD            CLOUDY    40  32  73 N10       29.90R WCI  33
YORK           CLEAR     46  32  57 NE12      29.87S
AURORA         CLOUDY    44  30  57 NE12      29.87R
LEXINGTON      CLOUDY    44  30  57 NE13      29.87R
HOLDREGE       CLEAR     47  32  56 NE14      29.84R
HEBRON         CLEAR     50  23  35 E3        29.85R

...NEBRASKA PANHANDLE...

CITY           SKY/WX    TMP DP  RH WIND       PRES   REMARKS
CHADRON        PTCLDY    36  27  69 NE10      29.94R WCI  28
ALLIANCE       CLOUDY    34  29  82 NE16      29.90R WCI  24
SCOTTSBLUFF    CLOUDY    37  29  72 E12       29.90R WCI  29
SIDNEY         PTCLDY    37  27  67 NE13      29.87R WCI  29

...WESTERN AND NORTH CENTRAL NEBRASKA...

CITY           SKY/WX    TMP DP  RH WIND       PRES   REMARKS
VALENTINE      CLOUDY    39  31  72 NE9       29.94S WCI  33
AINSWORTH      CLOUDY    38  33  83 N10       29.94R WCI  31
ONEILL         CLOUDY    39  34  83 N7        29.93R WCI  34
BROKEN BOW     CLOUDY    41  31  67 N10       29.89R
IMPERIAL       CLOUDY    43  28  55 NE17      29.84R
NORTH PLATTE   CLEAR     41  29  62 NE15      29.88R
MCCOOK         CLEAR     47  29  49 NE16G28   29.82R

...EASTERN NEBRASKA...

CITY           SKY/WX    TMP DP  RH WIND       PRES   REMARKS
NORFOLK        PTCLDY    42  33  70 N13       29.91R
SO SIOUX CITY  CLEAR     44  31  60 N12       29.92R
TEKAMAH        CLOUDY    44  27  51 N8        29.91R
COLUMBUS       CLOUDY    44  30  57 N10       29.91R
ALBION         PTCLDY    41  32  69 N6        29.92R
OMAHA EPPLEY   PTCLDY    45  26  47 NW6       29.89R
OFFUTT AFB     CLEAR     42  26  52 N6        29.87R
MILLARD        CLEAR     51  29  42 CALM      29.89R
LINCOLN        CLEAR     45  25  45 NE8       29.88R
NEBRASKA CITY  CLEAR     48  25  40 CALM      29.88R
BEATRICE       CLEAR     51  25  36 CALM      29.86R
FALLS CITY     CLEAR     51  25  36 E5        29.87R

...NORTHERN KANSAS...

CITY           SKY/WX    TMP DP  RH WIND       PRES   REMARKS
GOODLAND       CLEAR     49  17  28 NE20G28   29.77R
HILL CITY      CLEAR     49  20  31 NE10      29.79R
NORTON         CLEAR     50  16  25 NE13      29.79S
PHILLIPSBURG   CLEAR     48  18  29 NE7       29.82R
SMITH CENTER   CLEAR     45  21  39 NE8       29.82R
HAYS           CLEAR     54  21  27 SE8       29.76R
RUSSELL        CLEAR     53  25  33 SE9       29.77R
CONCORDIA      CLEAR     50  25  37 NE5       29.83R
SALINA         CLEAR     54  27  35 S8        29.83R
TOPEKA         CLEAR     53  27  36 SE7       29.88R



USA.gov is the U.S. government's official web portal to all federal, state and local government web resources and services.